[[{"header":{"parameterUnit":"m.s-1","parameterCategory":2,"la1":30.2991,"la2":30.254,"lo1":-89.0895,"lo2":-89.0444,"dy":0.0017,"dx":0.0017,"nx":28,"ny":28,"refTime":"2025-07-25T09:00:00:Z","depth":"0","parameterNumber":2,"parameterNumberName":"U-component_of_CURRENTS"},"data":[0,0,0,0,0,0,0,0,0,0,0,0,0,0,0,0,0,0,0,0,0,0,0,0,0,0,0,0,0,0,0,0,0,0,0,0,0,0,0,0,0,0,0,0,0,0,0,0,0,0,0,0,0,0,0,0,0,0,0.3152,0.3153,0,0.3223,0.3224,0.3224,0.3207,0.3206,0.3205,0.3204,0.3265,0.3268,0.3271,0,0,0,0,0,0,0,0,0,0,0,0,0,0.3125,0.3125,0.3152,0.3153,0.3154,0.3223,0.3224,0.3225,0.3207,0.3206,0.3204,0.3203,0.3264,0.3267,0.3271,0,0,0,0,0,0,0,0,0,0,0,0,0,0.3159,0.3124,0.3152,0.3155,0.3156,0.3223,0.3224,0.3225,0.3208,0.3206,0.3204,0.3202,0.3263,0.3267,0.3271,0.3334,0,0,0.3284,0.3286,0,0,0,0,0,0,0,0,0.3157,0.3159,0.3153,0.3155,0.3156,0.3206,0.3237,0.3261,0.3208,0.3186,0.3203,0.3201,0.3247,0.3252,0.3268,0.3337,0.334,0.3284,0.3287,0.3289,0.329,0,0,0,0,0,0,0,0.3154,0.3157,0.3179,0.3155,0.3157,0.3195,0.3197,0.3242,0.3225,0.3188,0.3188,0.3199,0.3247,0.3264,0.3269,0.334,0.3284,0.3288,0.3291,0.3292,0.3498,0.35,0,0,0,0,0,0,0.3144,0.3154,0.3176,0.3181,0.3154,0.3197,0.3198,0.319,0.3224,0.3228,0.32,0.3197,0.3257,0.3264,0.3271,0.3387,0.3289,0.3293,0.3295,0.3495,0.3498,0.3501,0,0,0,0,0,0,0.3143,0.3145,0.3173,0.3172,0.3178,0.3198,0.319,0.3193,0.3214,0.3234,0.3237,0.3218,0.3256,0.3265,0.3335,0.3387,0.3295,0.3298,0.3491,0.3496,0.35,0.3593,0,0,0,0,0,0,0.3141,0.3143,0.3141,0.317,0.3178,0.3231,0.3192,0.3196,0.3224,0.3221,0.3251,0.3254,0.3255,0.3329,0.3339,0.3391,0.3302,0.3487,0.3493,0.3498,0.3586,0.36,0.3612,0,0,0,0,0,0.314,0.3151,0.314,0.3144,0.3171,0.3233,0.3242,0.3249,0.3227,0.3256,0.3277,0.3254,0.337,0.3335,0.3346,0.3401,0.3485,0.3492,0.3498,0.358,0.3597,0.3612,0,0,0,0,0,0,0.315,0.3152,0.314,0.3152,0.3195,0.3231,0.3261,0.3262,0.3302,0.3298,0.3299,0.3307,0.3393,0.3387,0.3348,0.3477,0.3422,0.3431,0.3481,0.3497,0.3509,0.3491,0.3305,0,0,0,0,0,0.3148,0.3149,0.3174,0.3191,0.321,0.3236,0.3261,0.3272,0.3308,0.3322,0.3345,0.3376,0.3432,0.3453,0.3502,0.3572,0.3599,0.3612,0.3625,0.3636,0.363,0.3741,0.3763,0.3523,0.3523,0.3523,0,0,0.3158,0.3161,0.3162,0.3193,0.3221,0.3269,0.3247,0.33,0.3339,0.3327,0.3393,0.3434,0.3466,0.3551,0.3586,0.3547,0.3725,0.3644,0.3653,0.3641,0.375,0.3773,0.3794,0.3528,0.3527,0.3526,0,0,0.3194,0.3183,0.32,0.3237,0.3285,0.3309,0.3326,0.3375,0.3393,0.3471,0.3478,0.3546,0.3617,0.3655,0.368,0.3793,0.3802,0.381,0.3849,0.3958,0.3978,0.3996,0.4084,0.411,0.3802,0.3802,0.3802,0,0.3208,0.3222,0.3226,0.3267,0.3305,0.3326,0.338,0.3414,0.3481,0.3522,0.3502,0.3648,0.3666,0.3777,0.3804,0.3822,0.3879,0.3785,0.3974,0.3993,0.401,0.4096,0.4122,0.3807,0.3807,0.3806,0.3806,0,0.3259,0.3279,0.3306,0.3346,0.3395,0.3452,0.3497,0.3553,0.3577,0.3616,0.3736,0.3777,0.386,0.3882,0.387,0.4005,0.4008,0.3991,0.3931,0.4039,0.4123,0.4149,0.3815,0.3813,0.3811,0.381,0,0,0.3264,0.3324,0.3332,0.3365,0.344,0.3488,0.357,0.366,0.3727,0.3788,0.3894,0.3969,0.3994,0.4023,0.4039,0.4102,0.4267,0.4088,0.4092,0.4169,0.4514,0.4455,0.4478,0.4295,0.4299,0.4303,0.4532,0,0.3304,0.3376,0.3402,0.3492,0.3541,0.3596,0.3673,0.3758,0.3831,0.3943,0.3997,0.4106,0.4048,0.4109,0.4169,0.4259,0.4337,0.4206,0.4402,0.4407,0.4337,0.4506,0.4323,0.4507,0.4557,0.4562,0.4565,0,0.3339,0.3385,0.3468,0.3563,0.3591,0.3648,0.3788,0.3863,0.4011,0.4074,0.4183,0.4243,0.4364,0.4295,0.4484,0.4411,0.4465,0.4508,0.4518,0.4441,0.4397,0.4404,0.4552,0.4403,0.4604,0.4601,0.4598,0,0.3337,0.3429,0.3493,0.3527,0.3642,0.3697,0.3764,0.3905,0.3991,0.4172,0.4271,0.4413,0.4503,0.4606,0.4673,0.4614,0.4874,0.4815,0.4813,0.4809,0.4676,0.4652,0.4688,0.4956,0.4955,0.4955,0.4954,0,0.3365,0.3416,0.3491,0.353,0.3628,0.3701,0.3829,0.3924,0.4082,0.4207,0.4331,0.4461,0.4584,0.4732,0.4774,0.4888,0.4972,0.4859,0.4883,0.4705,0.4682,0.4558,0.4486,0.4963,0.4961,0.496,0.4958,0,0.336,0.3405,0.3485,0.3591,0.3628,0.3699,0.3844,0.3939,0.4086,0.4265,0.4334,0.4545,0.4743,0.4859,0.5047,0.5016,0.4994,0.514,0.4909,0.49,0.4712,0.4651,0.4584,0.4447,0.5195,0.5195,0.5195,0,0.337,0.3408,0.3513,0.3564,0.3611,0.3715,0.3793,0.3932,0.4027,0.4306,0.4387,0.4641,0.4804,0.5065,0.5096,0.5218,0.5025,0.5071,0.4906,0.4712,0.4665,0.4475,0.4349,0.4786,0.4783,0.478,0.4778,0,0.3407,0.3433,0.3498,0.3581,0.3653,0.373,0.3834,0.39,0.4077,0.4233,0.4437,0.4605,0.4863,0.4922,0.5068,0.5086,0.4812,0.5019,0.4895,0.4419,0.4141,0.4015,0.4615,0.4755,0.4757,0.4759,0.476,0.4761,0.3439,0.347,0.3536,0.3606,0.3674,0.3706,0.3721,0.3839,0.3965,0.413,0.436,0.4523,0.4694,0.4884,0.488,0.4701,0.4684,0.4535,0.4508,0.4356,0.4112,0.465,0.4756,0.4758,0.476,0.4762,0.4763,0,0.346,0.3484,0.3557,0.3602,0.3615,0.3663,0.372,0.3695,0.3766,0.3988,0.415,0.4297,0.4375,0.4441,0.4388,0.4221,0.4003,0.4076,0.3757,0.3682,0.4248,0.4112,0.3987,0.3988,0.3988,0.3988,0.3988,0.3988,0.3479,0.3513,0.352,0.3519,0.3532,0.3467,0.345,0.3444,0.3529,0.3613,0.3687,0.383,0.4035,0.4112,0.3935,0.3818,0.3493,0.3349,0.3335,0.372,0.3758,0.3795,0.3649,0.3429,0.3429,0.2596,0.259,0.2585]},{"header":{"parameterUnit":"m.s-1","parameterCategory":2,"la1":30.2991,"la2":30.254,"lo1":-89.0895,"lo2":-89.0444,"dy":0.0017,"dx":0.0017,"nx":28,"ny":28,"refTime":"2025-07-25T09:00:00:Z","depth":"0","parameterNumber":3,"parameterNumberName":"V-component_of_CURRENTS"},"data":[0,0,0,0,0,0,0,0,0,0,0,0,0,0,0,0,0,0,0,0,0,0,0,0,0,0,0,0,0,0,0,0,0,0,0,0,0,0,0,0,0,0,0,0,0,0,0,0,0,0,0,0,0,0,0,0,0,0,0.011,0.0109,0,0.0045,0.0045,0.0044,-0.0004,-0.0005,-0.0005,-0.0005,-0.0096,-0.0098,-0.01,0,0,0,0,0,0,0,0,0,0,0,0,0,0.0157,0.0157,0.011,0.0109,0.0109,0.0046,0.0045,0.0044,-0.0004,-0.0005,-0.0005,-0.0005,-0.0096,-0.0098,-0.0101,0,0,0,0,0,0,0,0,0,0,0,0,0,0.0118,0.0157,0.011,0.0078,0.0075,0.0046,0.0045,0.0043,-0.0004,-0.0005,-0.0005,-0.0006,-0.0095,-0.0098,-0.0101,-0.0112,0,0,-0.0111,-0.0112,0,0,0,0,0,0,0,0,0.012,0.0116,0.0084,0.008,0.0077,0.0029,0.0028,-0.001,-0.0004,0.0024,-0.0005,-0.0006,-0.0055,-0.0062,-0.0075,-0.0117,-0.0121,-0.0111,-0.0113,-0.0115,-0.0115,0,0,0,0,0,0,0,0.0123,0.0118,0.0083,0.0083,0.0079,0.0056,0.005,0.002,-0.0014,0.0022,0.0018,0.0014,-0.0058,-0.0072,-0.0077,-0.0122,-0.0111,-0.0114,-0.0116,-0.0117,-0.0176,-0.0176,0,0,0,0,0,0,0.0136,0.0121,0.0085,0.0081,0.01,0.0055,0.0049,0.0044,-0.0013,-0.0022,0.0014,0.0012,-0.0066,-0.0074,-0.0081,-0.0078,-0.0115,-0.0118,-0.0119,-0.0177,-0.0176,-0.0176,0,0,0,0,0,0,0.0138,0.0134,0.0088,0.0101,0.0094,0.0056,0.005,0.0043,0.0032,-0.0018,-0.0028,0.0012,-0.0066,-0.0076,-0.0099,-0.0082,-0.0119,-0.0122,-0.0177,-0.0176,-0.0176,-0.0084,0,0,0,0,0,0,0.0139,0.0135,0.0137,0.0102,0.0093,0.0082,0.005,0.0042,0.003,0.0027,-0.0024,-0.0033,-0.0068,-0.0093,-0.0102,-0.0087,-0.0124,-0.0178,-0.0177,-0.0176,-0.0088,-0.008,-0.0074,0,0,0,0,0,0.0141,0.0151,0.0137,0.0133,0.0097,0.0083,0.0077,0.0046,0.0031,0.0033,-0.0001,-0.0031,-0.0095,-0.0095,-0.0105,-0.0092,-0.0178,-0.0177,-0.0176,-0.0091,-0.0082,-0.0074,0,0,0,0,0,0,0.0173,0.0146,0.013,0.0131,0.0112,0.0075,0.0075,0.0054,0.0028,0.0024,-0.0026,-0.0037,-0.0053,-0.0086,-0.0085,-0.0108,-0.0142,-0.0143,-0.0073,-0.0066,-0.0059,-0.0023,-0.0127,0,0,0,0,0,0.0181,0.018,0.0151,0.0152,0.0146,0.0112,0.0102,0.0084,0.0056,0.0044,0.0009,-0.0029,-0.0058,-0.0071,-0.0105,-0.0113,-0.0121,-0.0113,-0.0106,-0.01,-0.0079,-0.0075,-0.0065,-0.0173,-0.0173,-0.0173,0,0,0.0192,0.0179,0.0177,0.0159,0.014,0.0149,0.0105,0.0099,0.0108,0.0038,0.0037,-0.0009,-0.0057,-0.0068,-0.0078,-0.0092,-0.0074,-0.0099,-0.0093,-0.0075,-0.0073,-0.0062,-0.0052,-0.0172,-0.0173,-0.0173,0,0,0.0226,0.0204,0.022,0.0212,0.0196,0.0177,0.0181,0.015,0.0139,0.0127,0.0081,0.0051,0.0004,-0.0021,-0.0041,-0.0018,-0.0042,-0.0034,0.0034,0.0037,0.0047,0.0056,0.0067,0.0075,-0.0027,-0.0027,-0.0026,0,0.0241,0.0258,0.0223,0.0241,0.0247,0.0198,0.0226,0.0208,0.0175,0.0184,0.0139,0.0092,0.0031,0.0041,0.0034,0.0,0.0003,0.001,0.005,0.0058,0.0065,0.0074,0.0082,-0.0022,-0.0023,-0.0023,-0.0023,0,0.029,0.0305,0.0316,0.0324,0.0325,0.0338,0.0316,0.0316,0.0289,0.0276,0.0273,0.0194,0.0173,0.0138,0.0084,0.0109,0.0095,0.0057,0.0038,0.0082,0.0087,0.0095,-0.0016,-0.0017,-0.0018,-0.002,0,0,0.0324,0.0347,0.0352,0.0389,0.0373,0.0394,0.0405,0.0423,0.0474,0.0407,0.0469,0.0365,0.0329,0.0303,0.0236,0.022,0.0243,0.0162,0.016,0.0189,0.0269,0.0236,0.024,0.0218,0.022,0.0221,0.0256,0,0.0377,0.0446,0.0432,0.0506,0.0547,0.0517,0.0554,0.0563,0.0555,0.0601,0.0523,0.0547,0.0393,0.0403,0.0351,0.0286,0.0266,0.0238,0.0208,0.0208,0.0186,0.0248,0.021,0.0236,0.0263,0.0264,0.0265,0,0.0436,0.0481,0.0564,0.0638,0.0655,0.0693,0.0768,0.0794,0.0824,0.0825,0.0808,0.0761,0.0722,0.0596,0.0491,0.0485,0.0381,0.0313,0.0312,0.0258,0.0188,0.0192,0.0248,0.0031,0.0275,0.0275,0.0274,0,0.0517,0.058,0.0662,0.0681,0.0746,0.0794,0.0833,0.0874,0.0946,0.0994,0.1066,0.098,0.0989,0.0839,0.0639,0.0587,0.0543,0.0458,0.0332,0.0329,0.028,0.0269,0.0136,0.0397,0.0397,0.0397,0.0397,0,0.0592,0.0664,0.0718,0.0773,0.0906,0.0907,0.1054,0.108,0.1165,0.1296,0.1202,0.1289,0.1052,0.0978,0.0755,0.0577,0.0626,0.0372,0.0345,0.0309,0.0301,0.0094,-0.0033,0.0398,0.0398,0.0397,0.0397,0,0.0684,0.0705,0.0823,0.0913,0.0955,0.1061,0.1207,0.1319,0.1376,0.155,0.1586,0.1555,0.1452,0.1202,0.0993,0.0765,0.0452,0.0499,0.0473,0.044,0.01,-0.002,-0.0158,-0.0257,0.0385,0.0385,0.0384,0,0.0743,0.0814,0.0945,0.1034,0.1086,0.1233,0.1348,0.1426,0.1548,0.1718,0.1821,0.1792,0.1791,0.1472,0.1056,0.0709,0.046,0.0452,0.0323,0.0103,-0.0051,-0.014,-0.022,0.0296,0.0295,0.0294,0.0293,0,0.088,0.0923,0.1023,0.1186,0.1321,0.1473,0.1632,0.1758,0.1876,0.203,0.2194,0.2227,0.1924,0.1562,0.1077,0.0802,0.0285,0.0423,0.0204,-0.0114,-0.0225,-0.0341,0.0253,0.0285,0.0286,0.0287,0.0287,0.0288,0.0995,0.1083,0.1201,0.1353,0.1503,0.1673,0.1816,0.199,0.2202,0.2432,0.2443,0.2534,0.1998,0.1328,0.0951,0.0208,0.0222,-0.0023,-0.014,-0.0199,-0.0336,0.0246,0.0233,0.0234,0.0234,0.0235,0.0235,0,0.1106,0.1195,0.1357,0.1525,0.1683,0.1736,0.1976,0.2125,0.2373,0.2598,0.274,0.2498,0.1862,0.1179,0.019,-0.0266,-0.0454,-0.0524,-0.068,-0.0729,-0.02,-0.0248,-0.0376,-0.0376,-0.0376,-0.0376,-0.0375,-0.0375,0.1179,0.1318,0.1377,0.1627,0.1752,0.1961,0.2094,0.2327,0.2517,0.2756,0.2802,0.2801,0.2203,0.0545,-0.0557,-0.0797,-0.1122,-0.1194,-0.1322,-0.1006,-0.0969,-0.0934,-0.1009,-0.1295,-0.1296,-0.1815,-0.182,-0.1825]}],[{"header":{"parameterUnit":"m.s-1","parameterCategory":2,"la1":30.2991,"la2":30.254,"lo1":-89.0895,"lo2":-89.0444,"dy":0.0017,"dx":0.0017,"nx":28,"ny":28,"refTime":"2025-07-25T09:00:00:Z","depth":"2","parameterNumber":2,"parameterNumberName":"U-component_of_CURRENTS"},"data":[0,0,0,0,0,0,0,0,0,0,0,0,0,0,0,0,0,0,0,0,0,0,0,0,0,0,0,0,0,0,0,0,0,0,0,0,0,0,0,0,0,0,0,0,0,0,0,0,0,0,0,0,0,0,0,0,0,0,0.2749,0.2749,0,0.2789,0.2789,0.2789,0.2794,0.2794,0.2794,0.2794,0.2825,0.2826,0.2826,0,0,0,0,0,0,0,0,0,0,0,0,0,0.2675,0.2676,0.2748,0.2749,0.275,0.2789,0.2789,0.2789,0.2794,0.2794,0.2794,0.2794,0.2825,0.2825,0.2826,0,0,0,0,0,0,0,0,0,0,0,0,0,0.2706,0.2676,0.2748,0.2761,0.2763,0.2789,0.2789,0.2789,0.2794,0.2794,0.2794,0.2794,0.2824,0.2825,0.2827,0.2833,0,0,0.283,0.2831,0,0,0,0,0,0,0,0,0.2704,0.2708,0.2758,0.276,0.2762,0.2791,0.2775,0.2805,0.2794,0.2777,0.2794,0.2794,0.2816,0.2818,0.2818,0.2834,0.2836,0.283,0.2831,0.2832,0.2832,0,0,0,0,0,0,0,0.2702,0.2706,0.276,0.2759,0.2762,0.2765,0.2769,0.278,0.2792,0.2778,0.278,0.2792,0.2816,0.2817,0.2819,0.2836,0.283,0.2831,0.2832,0.2833,0.3015,0.3019,0,0,0,0,0,0,0.2707,0.2704,0.2759,0.2761,0.2738,0.2767,0.2771,0.2778,0.2792,0.2795,0.2792,0.2792,0.2815,0.2818,0.282,0.2929,0.2832,0.2833,0.2833,0.3011,0.3016,0.302,0,0,0,0,0,0,0.2705,0.2711,0.2757,0.2738,0.2745,0.2768,0.2776,0.2779,0.2796,0.2803,0.2806,0.2809,0.2815,0.2819,0.2872,0.2926,0.2833,0.2834,0.3006,0.3013,0.3018,0.3082,0,0,0,0,0,0,0.2703,0.271,0.2719,0.2738,0.2746,0.279,0.2776,0.2779,0.2805,0.2806,0.2819,0.282,0.2816,0.2871,0.2873,0.2926,0.2835,0.3001,0.3009,0.3016,0.3075,0.309,0.3102,0,0,0,0,0,0.27,0.2715,0.2719,0.2726,0.2756,0.2791,0.2796,0.2809,0.2806,0.2822,0.2848,0.2821,0.2923,0.2874,0.2876,0.2931,0.2997,0.3007,0.3016,0.3068,0.3087,0.3102,0,0,0,0,0,0,0.269,0.2718,0.2722,0.2746,0.2774,0.2794,0.2813,0.282,0.285,0.2857,0.2855,0.286,0.2938,0.2933,0.2879,0.3016,0.2963,0.2973,0.3003,0.302,0.3034,0.3032,0.2836,0,0,0,0,0,0.2692,0.2709,0.2739,0.276,0.2776,0.2795,0.2812,0.2826,0.2855,0.2867,0.288,0.2918,0.2977,0.2994,0.3035,0.3086,0.3096,0.3135,0.3149,0.316,0.3168,0.3234,0.3253,0.3051,0.3051,0.3051,0,0,0.269,0.2713,0.272,0.2759,0.2779,0.2823,0.2805,0.2843,0.2886,0.2867,0.2927,0.2964,0.3007,0.3084,0.3118,0.3081,0.323,0.3172,0.3181,0.3182,0.3246,0.3265,0.3282,0.3057,0.3056,0.3055,0,0,0.2709,0.2721,0.2747,0.2778,0.2824,0.2848,0.2866,0.2901,0.2921,0.2988,0.3006,0.3072,0.3136,0.3178,0.3211,0.3326,0.3309,0.3354,0.3404,0.347,0.3485,0.3499,0.3547,0.3565,0.3349,0.3349,0.3349,0,0.2714,0.2747,0.2762,0.2805,0.2838,0.2866,0.2913,0.2947,0.2997,0.3034,0.3025,0.3168,0.3187,0.3297,0.3346,0.3353,0.3384,0.3325,0.3483,0.3497,0.351,0.3556,0.3574,0.3353,0.3353,0.3352,0.3352,0,0.2756,0.2789,0.2811,0.2876,0.2915,0.296,0.3014,0.3059,0.3096,0.314,0.3252,0.3288,0.3372,0.3401,0.3407,0.3527,0.3518,0.3495,0.3424,0.3533,0.3576,0.3594,0.3359,0.3358,0.3357,0.3356,0,0,0.275,0.2826,0.2833,0.2868,0.2956,0.2989,0.3078,0.3166,0.3242,0.3297,0.3392,0.3489,0.3509,0.3549,0.3563,0.3612,0.3728,0.3596,0.3597,0.3616,0.3875,0.3776,0.3785,0.3732,0.3736,0.3738,0.3869,0,0.2782,0.2857,0.2896,0.2978,0.3022,0.3082,0.3169,0.3256,0.3336,0.3437,0.3492,0.3603,0.3566,0.3624,0.3666,0.373,0.3779,0.3695,0.3791,0.3794,0.3669,0.3804,0.3514,0.3598,0.3886,0.3889,0.3891,0,0.2815,0.2859,0.2938,0.303,0.3057,0.3122,0.3261,0.3341,0.3494,0.3559,0.3661,0.3721,0.3827,0.3771,0.39,0.3852,0.3874,0.3896,0.3902,0.3795,0.3728,0.354,0.362,0.3921,0.3919,0.3916,0.3914,0,0.2799,0.2887,0.2947,0.2979,0.31,0.3154,0.323,0.3385,0.3477,0.3648,0.3745,0.386,0.394,0.3992,0.4031,0.3994,0.4152,0.4102,0.4028,0.4021,0.3785,0.3751,0.419,0.419,0.4189,0.4189,0.4189,0,0.2817,0.2861,0.2942,0.2978,0.3083,0.3152,0.3293,0.3397,0.3552,0.3684,0.38,0.3912,0.4005,0.4097,0.4099,0.4124,0.4209,0.4069,0.4061,0.3802,0.3769,0.4046,0.4028,0.4194,0.4193,0.4192,0.4191,0,0.2804,0.285,0.2926,0.3035,0.3086,0.3157,0.3325,0.3409,0.3572,0.3743,0.3809,0.3995,0.4112,0.4171,0.4275,0.4215,0.4247,0.4223,0.3905,0.3857,0.4056,0.4041,0.4181,0.4179,0.4177,0.4175,0.4174,0,0.2808,0.2855,0.2972,0.3023,0.3078,0.3192,0.3275,0.342,0.3507,0.378,0.3843,0.4036,0.4112,0.422,0.4181,0.418,0.4235,0.3904,0.3771,0.4084,0.4063,0.405,0.4037,0.3495,0.3489,0.3483,0.3479,0,0.2836,0.2881,0.2933,0.3045,0.3116,0.3198,0.3312,0.3383,0.3555,0.3667,0.3814,0.3903,0.403,0.3904,0.3923,0.3875,0.388,0.3792,0.4236,0.3532,0.3445,0.3421,0.343,0.343,0.3435,0.3438,0.3441,0.3443,0.2859,0.2895,0.2968,0.3071,0.3162,0.3205,0.3203,0.3283,0.337,0.3466,0.3628,0.3622,0.3678,0.3543,0.3451,0.3395,0.3637,0.3477,0.3491,0.3512,0.3398,0.3312,0.3251,0.3255,0.3258,0.3261,0.3263,0,0.2879,0.2925,0.3001,0.3062,0.3091,0.3188,0.3233,0.3133,0.3141,0.323,0.3261,0.2989,0.2949,0.3009,0.2858,0.2865,0.2808,0.2751,0.2654,0.2707,0.2753,0.2596,0.2239,0.2235,0.2232,0.2228,0,0,0.2889,0.2918,0.2947,0.2979,0.3051,0.3043,0.3036,0.2848,0.2823,0.2678,0.2634,0.2802,0.2939,0.2536,0.2504,0.2353,0.2501,0.2266,0.31,0.304,0.3081,0.3199,0.3023,0,0,0,0,0]},{"header":{"parameterUnit":"m.s-1","parameterCategory":2,"la1":30.2991,"la2":30.254,"lo1":-89.0895,"lo2":-89.0444,"dy":0.0017,"dx":0.0017,"nx":28,"ny":28,"refTime":"2025-07-25T09:00:00:Z","depth":"2","parameterNumber":3,"parameterNumberName":"V-component_of_CURRENTS"},"data":[0,0,0,0,0,0,0,0,0,0,0,0,0,0,0,0,0,0,0,0,0,0,0,0,0,0,0,0,0,0,0,0,0,0,0,0,0,0,0,0,0,0,0,0,0,0,0,0,0,0,0,0,0,0,0,0,0,0,-0.0012,-0.0013,0,-0.0071,-0.0072,-0.0072,-0.0117,-0.0117,-0.0117,-0.0118,-0.0197,-0.0198,-0.02,0,0,0,0,0,0,0,0,0,0,0,0,0,0.0016,0.0015,-0.0012,-0.0013,-0.0014,-0.0071,-0.0072,-0.0073,-0.0117,-0.0117,-0.0117,-0.0118,-0.0196,-0.0198,-0.02,0,0,0,0,0,0,0,0,0,0,0,0,0,-0.0016,0.0015,-0.0012,-0.0041,-0.0045,-0.007,-0.0072,-0.0073,-0.0117,-0.0117,-0.0117,-0.0118,-0.0195,-0.0198,-0.0201,-0.0209,0,0,-0.0209,-0.021,0,0,0,0,0,0,0,0,-0.0014,-0.0017,-0.0037,-0.0039,-0.0043,-0.0086,-0.0091,-0.0119,-0.0116,-0.0091,-0.0118,-0.0118,-0.016,-0.0166,-0.0178,-0.0213,-0.0217,-0.0209,-0.0211,-0.0212,-0.0213,0,0,0,0,0,0,0,-0.0012,-0.0015,-0.0037,-0.0037,-0.0041,-0.0067,-0.0072,-0.0097,-0.0124,-0.0093,-0.0096,-0.01,-0.0162,-0.0175,-0.018,-0.0218,-0.0209,-0.0212,-0.0214,-0.0215,-0.0262,-0.0262,0,0,0,0,0,0,0.0001,-0.0013,-0.0035,-0.0038,-0.0028,-0.0067,-0.0072,-0.0073,-0.0123,-0.0131,-0.01,-0.0102,-0.017,-0.0177,-0.0183,-0.0175,-0.0212,-0.0215,-0.0217,-0.0262,-0.0262,-0.0261,0,0,0,0,0,0,0.0002,-0.0,-0.0033,-0.0026,-0.0032,-0.0066,-0.0067,-0.0074,-0.0084,-0.0128,-0.0136,-0.0102,-0.0171,-0.0179,-0.0199,-0.0179,-0.0216,-0.0219,-0.0263,-0.0262,-0.0262,-0.0173,0,0,0,0,0,0,0.0003,0.0,0.0005,-0.0025,-0.0032,-0.0037,-0.0067,-0.0074,-0.0085,-0.0088,-0.0133,-0.0141,-0.0172,-0.0194,-0.0201,-0.0184,-0.0221,-0.0263,-0.0263,-0.0262,-0.0176,-0.0169,-0.0163,0,0,0,0,0,0.0004,0.0016,0.0005,0.0003,-0.0025,-0.0036,-0.0042,-0.0069,-0.0084,-0.0082,-0.0114,-0.0139,-0.0195,-0.0196,-0.0205,-0.0187,-0.0264,-0.0263,-0.0262,-0.0179,-0.017,-0.0163,0,0,0,0,0,0,0.0028,0.0012,-0.0,0.0005,-0.001,-0.0043,-0.0044,-0.0063,-0.0086,-0.009,-0.0135,-0.0144,-0.0158,-0.0186,-0.0186,-0.02,-0.0233,-0.0234,-0.0167,-0.016,-0.0153,-0.0126,-0.0223,0,0,0,0,0,0.0037,0.0042,0.002,0.0024,0.002,-0.0011,-0.0019,-0.0036,-0.0061,-0.0072,-0.0103,-0.0136,-0.0161,-0.017,-0.0202,-0.0204,-0.0236,-0.02,-0.0193,-0.0187,-0.0172,-0.0204,-0.0198,-0.0258,-0.0259,-0.0259,0,0,0.0045,0.0038,0.0039,0.0029,0.0014,0.0024,-0.0017,-0.0022,-0.0012,-0.0076,-0.0075,-0.0118,-0.016,-0.0167,-0.0174,-0.0185,-0.0189,-0.0186,-0.0181,-0.0168,-0.0202,-0.0196,-0.0191,-0.0258,-0.0258,-0.0258,0,0,0.0073,0.0061,0.0078,0.0074,0.0063,0.0048,0.0052,0.0025,0.0016,0.0007,-0.0035,-0.0061,-0.0101,-0.012,-0.0137,-0.0112,-0.016,-0.0127,-0.0061,-0.0092,-0.0087,-0.0083,-0.012,-0.012,-0.0115,-0.0114,-0.0114,0,0.0083,0.0106,0.008,0.0101,0.0107,0.0067,0.0093,0.008,0.0051,0.0056,0.0019,-0.0032,-0.0075,-0.0069,-0.0066,-0.0095,-0.0125,-0.0084,-0.0082,-0.0078,-0.0076,-0.0115,-0.0116,-0.011,-0.0111,-0.0111,-0.0111,0,0.0128,0.0147,0.0158,0.0174,0.0176,0.019,0.0176,0.0177,0.0154,0.014,0.013,0.0066,0.0041,0.0019,-0.0019,-0.0012,-0.0045,-0.0075,-0.0096,-0.0064,-0.0108,-0.011,-0.0104,-0.0105,-0.0107,-0.0108,0,0,0.0149,0.0185,0.019,0.022,0.022,0.0232,0.0253,0.0268,0.0302,0.0249,0.028,0.0214,0.0176,0.0154,0.0102,0.0073,0.0052,0.0015,0.0011,-0.0011,-0.0021,-0.0066,-0.0074,0.0022,0.0022,0.0022,-0.0061,0,0.0194,0.026,0.0259,0.0321,0.0357,0.0339,0.0373,0.0379,0.037,0.0388,0.0323,0.0326,0.0231,0.0227,0.0178,0.0088,0.005,0.0077,-0.0058,-0.0062,-0.0097,-0.0076,-0.0047,-0.012,-0.0064,-0.0064,-0.0064,0,0.0241,0.0285,0.0357,0.0421,0.0435,0.0463,0.0518,0.0546,0.0556,0.0549,0.0526,0.0475,0.0428,0.0342,0.0202,0.0223,0.011,0.0029,0.0024,-0.0047,-0.0111,-0.0144,-0.0127,-0.0069,-0.0069,-0.0069,-0.0068,0,0.0287,0.0354,0.0421,0.0439,0.0499,0.0533,0.0567,0.0597,0.0652,0.0665,0.0699,0.0612,0.0593,0.044,0.0249,0.0232,0.0086,0.0042,-0.0105,-0.011,-0.0125,-0.0131,-0.0054,-0.0054,-0.0054,-0.0054,-0.0053,0,0.034,0.0396,0.0452,0.0493,0.0594,0.0603,0.0709,0.0734,0.0786,0.0877,0.0793,0.083,0.0618,0.0503,0.0303,0.009,0.0121,-0.0086,-0.0129,-0.0095,-0.0098,-0.0087,-0.0089,-0.0057,-0.0056,-0.0055,-0.0055,0,0.0384,0.0415,0.0505,0.0583,0.0624,0.0695,0.0817,0.0887,0.0932,0.1046,0.1063,0.1001,0.0854,0.0616,0.0376,0.0183,-0.0027,-0.0114,-0.0066,-0.0103,-0.0218,-0.0215,-0.0272,-0.0275,-0.0276,-0.0278,-0.0279,0,0.041,0.0465,0.0582,0.0644,0.0684,0.0798,0.0882,0.0959,0.1045,0.1156,0.1213,0.1126,0.1064,0.0681,0.0332,-0.0015,-0.0051,-0.0204,-0.0235,-0.0201,-0.0237,-0.0232,-0.0227,-0.0225,-0.0225,-0.0226,-0.0226,0,0.0473,0.0512,0.0584,0.0709,0.0803,0.0935,0.1061,0.1159,0.1266,0.1372,0.1459,0.1424,0.1083,0.0741,0.0273,0.0037,-0.015,-0.0228,-0.0192,-0.0175,-0.0163,-0.0197,-0.0192,-0.0232,-0.0231,-0.0231,-0.023,-0.023,0.0511,0.0567,0.065,0.0761,0.0903,0.1052,0.1159,0.1307,0.1476,0.164,0.1593,0.1562,0.1187,0.0582,0.0191,-0.0203,-0.0196,-0.0329,-0.0324,-0.0319,-0.03,-0.0292,-0.0382,-0.0382,-0.0382,-0.0383,-0.0383,0,0.054,0.0595,0.0697,0.0832,0.0972,0.1055,0.1268,0.1382,0.16,0.1728,0.1789,0.1427,0.1055,0.0641,0.0055,-0.0309,-0.0325,-0.0413,-0.0344,-0.0337,-0.0332,-0.0311,-0.0397,-0.0398,-0.0398,-0.0399,0,0,0.0556,0.0625,0.0662,0.0847,0.0974,0.1164,0.1293,0.1514,0.1658,0.1788,0.1791,0.1682,0.1183,0.0758,0.0266,-0.005,-0.0108,-0.012,-0.0075,0.007,0.0081,-0.0257,-0.0214,0,0,0,0,0]}],[{"header":{"parameterUnit":"m.s-1","parameterCategory":2,"la1":30.2991,"la2":30.254,"lo1":-89.0895,"lo2":-89.0444,"dy":0.0017,"dx":0.0017,"nx":28,"ny":28,"refTime":"2025-07-25T09:00:00:Z","depth":"4","parameterNumber":2,"parameterNumberName":"U-component_of_CURRENTS"},"data":[0,0,0,0,0,0,0,0,0,0,0,0,0,0,0,0,0,0,0,0,0,0,0,0,0,0,0,0,0,0,0,0,0,0,0,0,0,0,0,0,0,0,0,0,0,0,0,0,0,0,0,0,0,0,0,0,0,0,0.1752,0.1752,0,0.1813,0.1813,0.1814,0.1881,0.1882,0.1883,0.1884,0.1953,0.1954,0.1955,0,0,0,0,0,0,0,0,0,0,0,0,0,0.1647,0.1649,0.1751,0.1752,0.1753,0.1813,0.1813,0.1814,0.188,0.1882,0.1883,0.1884,0.1953,0.1954,0.1955,0,0,0,0,0,0,0,0,0,0,0,0,0,0.1698,0.165,0.1751,0.1795,0.1799,0.1813,0.1813,0.1814,0.188,0.1882,0.1883,0.1885,0.1952,0.1954,0.1955,0.193,0,0,0.1959,0.1959,0,0,0,0,0,0,0,0,0.1695,0.1701,0.1787,0.1792,0.1797,0.1842,0.1802,0.1854,0.188,0.1848,0.1884,0.1886,0.1916,0.1921,0.1926,0.1933,0.1936,0.1959,0.1959,0.196,0.196,0,0,0,0,0,0,0,0.1691,0.1699,0.1774,0.1788,0.1794,0.1796,0.1805,0.1812,0.1871,0.1851,0.1856,0.1865,0.1919,0.1925,0.1928,0.1937,0.1959,0.196,0.1961,0.1961,0.2034,0.2036,0,0,0,0,0,0,0.1687,0.1696,0.1772,0.1776,0.175,0.1797,0.1807,0.1825,0.1871,0.188,0.1863,0.1868,0.1922,0.1927,0.1931,0.201,0.196,0.1961,0.1962,0.2033,0.2035,0.2036,0,0,0,0,0,0,0.1685,0.1694,0.177,0.1738,0.1748,0.1797,0.1816,0.1825,0.1871,0.1881,0.189,0.1905,0.1923,0.1929,0.1963,0.201,0.1962,0.1963,0.2032,0.2034,0.2035,0.2101,0,0,0,0,0,0,0.1682,0.1693,0.172,0.1738,0.175,0.1796,0.1815,0.1825,0.1872,0.188,0.1919,0.1925,0.1925,0.1961,0.1964,0.2011,0.1964,0.203,0.2033,0.2035,0.2097,0.2105,0.2111,0,0,0,0,0,0.1678,0.1698,0.1721,0.1731,0.1781,0.1797,0.1803,0.1842,0.1873,0.1891,0.1919,0.1926,0.1978,0.1962,0.1966,0.2014,0.2029,0.2032,0.2035,0.2094,0.2103,0.2111,0,0,0,0,0,0,0.1662,0.1708,0.1733,0.1767,0.1792,0.1809,0.1835,0.1861,0.1898,0.1917,0.1931,0.1938,0.1993,0.1984,0.1967,0.2041,0.2009,0.2012,0.2053,0.2062,0.2068,0.2079,0.1965,0,0,0,0,0,0.1671,0.1706,0.1738,0.1767,0.1785,0.1819,0.1839,0.1863,0.1889,0.1911,0.1936,0.1966,0.1998,0.2015,0.2035,0.2062,0.2079,0.2098,0.2105,0.2111,0.2122,0.2196,0.2211,0.2045,0.2045,0.2045,0,0,0.167,0.1703,0.1722,0.1767,0.1794,0.1815,0.1836,0.1873,0.1902,0.1909,0.1965,0.1994,0.2012,0.2055,0.2079,0.2058,0.2163,0.2114,0.212,0.2127,0.22,0.2217,0.2231,0.2047,0.2046,0.2046,0,0,0.1668,0.172,0.1744,0.1771,0.1818,0.1834,0.1854,0.1892,0.193,0.1972,0.1999,0.2051,0.2086,0.2113,0.213,0.2182,0.2203,0.2199,0.224,0.2312,0.2327,0.234,0.2368,0.2384,0.2197,0.2197,0.2197,0,0.1669,0.171,0.1749,0.1776,0.1806,0.1848,0.1872,0.1905,0.1951,0.1998,0.2001,0.211,0.2115,0.2193,0.2207,0.2201,0.2236,0.2209,0.2324,0.2337,0.235,0.2375,0.2391,0.22,0.22,0.2199,0.2199,0,0.1674,0.1722,0.1738,0.1792,0.1821,0.1853,0.1897,0.1944,0.1999,0.2045,0.2152,0.2172,0.2248,0.2255,0.2243,0.2343,0.2337,0.2331,0.2306,0.2371,0.2393,0.2408,0.2205,0.2204,0.2203,0.2202,0,0,0.1636,0.1728,0.1737,0.1778,0.1843,0.1863,0.1922,0.1997,0.207,0.2134,0.2235,0.2291,0.2347,0.2368,0.2384,0.2425,0.252,0.2417,0.242,0.245,0.267,0.2491,0.249,0.2554,0.2558,0.2561,0.2644,0,0.1635,0.169,0.1738,0.1796,0.1829,0.1899,0.1953,0.2029,0.2112,0.2213,0.2291,0.2386,0.238,0.2434,0.2487,0.2524,0.2568,0.2497,0.2597,0.2599,0.2438,0.2505,0.2572,0.2656,0.2659,0.2662,0.2664,0,0.1618,0.1667,0.1724,0.1827,0.1852,0.1898,0.2021,0.2077,0.2221,0.2298,0.2426,0.2492,0.2596,0.2565,0.2695,0.2662,0.2676,0.2683,0.2687,0.251,0.245,0.258,0.2692,0.2689,0.2687,0.2686,0.2684,0,0.1562,0.1656,0.1711,0.1743,0.1855,0.1919,0.1989,0.212,0.2199,0.2371,0.2455,0.2603,0.2688,0.2756,0.2782,0.2767,0.2889,0.2869,0.272,0.2707,0.2814,0.2799,0.2953,0.2953,0.2953,0.2953,0.2952,0,0.1534,0.1581,0.1705,0.1738,0.1821,0.1911,0.2027,0.2121,0.2277,0.2372,0.2514,0.2599,0.2746,0.2825,0.2835,0.2823,0.295,0.2739,0.2727,0.2835,0.2821,0.2824,0.2808,0.2956,0.2955,0.2955,0.2954,0,0.1456,0.154,0.1608,0.1746,0.1799,0.1859,0.2033,0.2107,0.2274,0.24,0.246,0.2645,0.2749,0.284,0.2938,0.287,0.2874,0.2829,0.2926,0.2916,0.2631,0.2617,0.2691,0.2686,0.2681,0.2678,0.2674,0,0.1416,0.1446,0.1591,0.1626,0.17,0.1817,0.1888,0.2082,0.2151,0.2391,0.2419,0.2602,0.2697,0.2703,0.2808,0.2834,0.2794,0.2774,0.2708,0.2628,0.261,0.2604,0.2597,0.2667,0.2666,0.2665,0.2664,0,0.1326,0.1391,0.1437,0.1506,0.1592,0.1687,0.1808,0.186,0.2064,0.225,0.2339,0.2415,0.2524,0.2602,0.2638,0.2644,0.278,0.2726,0.2735,0.2673,0.26,0.2585,0.2583,0.2648,0.265,0.2652,0.2653,0,0.1238,0.1241,0.1293,0.1343,0.1439,0.1497,0.1608,0.17,0.1814,0.2087,0.2112,0.2307,0.2491,0.2502,0.253,0.2535,0.2505,0.2417,0.2441,0.246,0.2345,0.2216,0.2147,0,0,0,0,0,0.1134,0.1106,0.1121,0.1166,0.1256,0.1314,0.1501,0.1618,0.1845,0.1854,0.1984,0.2074,0.2173,0.2273,0.2234,0.2417,0.2495,0.236,0.2399,0.256,0.2579,0.2464,0,0,0,0,0,0,0.1055,0.1053,0.1047,0.0994,0.0995,0.1086,0.1203,0.1374,0.1397,0.1646,0.1713,0.1912,0.2035,0.2149,0.2172,0.2203,0.2182,0.2493,0.2488,0.255,0.2566,0.2581,0.247,0,0,0,0,0]},{"header":{"parameterUnit":"m.s-1","parameterCategory":2,"la1":30.2991,"la2":30.254,"lo1":-89.0895,"lo2":-89.0444,"dy":0.0017,"dx":0.0017,"nx":28,"ny":28,"refTime":"2025-07-25T09:00:00:Z","depth":"4","parameterNumber":3,"parameterNumberName":"V-component_of_CURRENTS"},"data":[0,0,0,0,0,0,0,0,0,0,0,0,0,0,0,0,0,0,0,0,0,0,0,0,0,0,0,0,0,0,0,0,0,0,0,0,0,0,0,0,0,0,0,0,0,0,0,0,0,0,0,0,0,0,0,0,0,0,0.0004,0.0004,0,-0.0032,-0.0032,-0.0033,-0.007,-0.007,-0.0071,-0.0071,-0.0124,-0.0125,-0.0126,0,0,0,0,0,0,0,0,0,0,0,0,0,0.0018,0.0018,0.0004,0.0003,0.0003,-0.0032,-0.0032,-0.0033,-0.007,-0.007,-0.0071,-0.0071,-0.0124,-0.0125,-0.0126,0,0,0,0,0,0,0,0,0,0,0,0,0,-0.0001,0.0018,0.0004,-0.0019,-0.0021,-0.0032,-0.0032,-0.0033,-0.007,-0.007,-0.0071,-0.0072,-0.0124,-0.0125,-0.0127,-0.0122,0,0,-0.0131,-0.0132,0,0,0,0,0,0,0,0,0.0,-0.0001,-0.0015,-0.0018,-0.002,-0.0047,-0.0047,-0.0063,-0.0069,-0.0052,-0.0071,-0.0072,-0.0099,-0.0103,-0.0108,-0.0124,-0.0127,-0.0131,-0.0132,-0.0133,-0.0133,0,0,0,0,0,0,0,0.0002,0.0,-0.0011,-0.0016,-0.0019,-0.0035,-0.0038,-0.005,-0.0072,-0.0053,-0.0056,-0.0059,-0.0101,-0.0107,-0.011,-0.0127,-0.0131,-0.0132,-0.0133,-0.0134,-0.0133,-0.0133,0,0,0,0,0,0,0.0009,0.0001,-0.001,-0.0012,-0.0011,-0.0035,-0.0038,-0.0038,-0.0072,-0.0077,-0.0058,-0.0061,-0.0104,-0.0108,-0.0112,-0.0093,-0.0133,-0.0134,-0.0135,-0.0134,-0.0133,-0.0132,0,0,0,0,0,0,0.001,0.0009,-0.0008,-0.0006,-0.0009,-0.0034,-0.0033,-0.0038,-0.0046,-0.0075,-0.0081,-0.0061,-0.0105,-0.011,-0.0114,-0.0096,-0.0135,-0.0136,-0.0135,-0.0134,-0.0133,-0.0064,0,0,0,0,0,0,0.0011,0.0009,0.0013,-0.0005,-0.0009,-0.0005,-0.0033,-0.0038,-0.0046,-0.0049,-0.0079,-0.0085,-0.0106,-0.0111,-0.0115,-0.0098,-0.0137,-0.0137,-0.0135,-0.0133,-0.0068,-0.0061,-0.0055,0,0,0,0,0,0.0011,0.0022,0.0013,0.0012,-0.0003,-0.0004,-0.0007,-0.0029,-0.0045,-0.004,-0.006,-0.0084,-0.0104,-0.0112,-0.0117,-0.01,-0.0137,-0.0135,-0.0133,-0.007,-0.0062,-0.0055,0,0,0,0,0,0,0.0029,0.0019,0.0009,0.0016,0.001,-0.001,-0.0009,-0.0024,-0.0036,-0.0041,-0.0073,-0.0079,-0.0077,-0.0096,-0.0104,-0.0094,-0.0124,-0.0123,-0.0075,-0.0067,-0.0061,-0.0057,-0.0139,0,0,0,0,0,0.0036,0.0041,0.0029,0.0034,0.0033,0.0012,0.0008,-0.0004,-0.0018,-0.0025,-0.0045,-0.0063,-0.0071,-0.0076,-0.0089,-0.0082,-0.0127,-0.0074,-0.0067,-0.0062,-0.0061,-0.0113,-0.0112,-0.0126,-0.0126,-0.0126,0,0,0.0042,0.0039,0.004,0.0038,0.0029,0.0042,0.0008,0.0008,0.002,-0.0028,-0.0019,-0.0043,-0.0065,-0.0057,-0.0058,-0.0071,-0.0081,-0.0059,-0.0054,-0.0057,-0.0111,-0.011,-0.0109,-0.0124,-0.0124,-0.0125,0,0,0.0066,0.0058,0.0073,0.0075,0.007,0.0062,0.0065,0.005,0.0045,0.0051,0.0021,0.0008,-0.0003,-0.0015,-0.0022,0.0012,-0.0048,0.0009,0.0048,-0.0002,-0.0002,-0.0002,-0.0059,-0.0065,0.0015,0.0015,0.0015,0,0.0074,0.0092,0.0077,0.0096,0.0103,0.0076,0.0099,0.0096,0.0082,0.0081,0.0064,0.0038,0.0018,0.0024,0.0037,0.0026,-0.0019,0.0021,0.0005,0.0004,0.0002,-0.0056,-0.0064,0.0019,0.0019,0.0018,0.0018,0,0.0111,0.0127,0.0138,0.0155,0.0163,0.0176,0.0173,0.0177,0.0163,0.0153,0.0149,0.0117,0.0099,0.0095,0.0078,0.0068,0.0034,0.0016,-0.0016,0.0008,-0.0056,-0.0065,0.0024,0.0023,0.0022,0.0021,0,0,0.0121,0.0157,0.0161,0.0182,0.0195,0.0205,0.0231,0.0241,0.0251,0.0232,0.0234,0.0221,0.0187,0.0176,0.0146,0.0108,0.0061,0.0064,0.0059,0.0004,-0.0063,-0.0062,-0.0073,0.0035,0.0034,0.0033,-0.0104,0,0.0153,0.0203,0.0213,0.0262,0.0286,0.0283,0.031,0.0316,0.0306,0.0301,0.0263,0.0254,0.0224,0.0211,0.0171,0.0089,0.004,0.0098,-0.0075,-0.0081,-0.0085,-0.0081,0.003,-0.0111,-0.0113,-0.0115,-0.0116,0,0.0184,0.0215,0.027,0.0317,0.0328,0.0356,0.0382,0.0405,0.0395,0.0384,0.0361,0.0318,0.0276,0.0236,0.0107,0.0143,0.0047,-0.0024,-0.0032,-0.0062,-0.0096,-0.014,-0.0133,-0.0132,-0.013,-0.0129,-0.0128,0,0.0196,0.0254,0.0299,0.0316,0.0365,0.0391,0.0417,0.0427,0.0453,0.043,0.0427,0.0363,0.0327,0.021,0.0075,0.0082,-0.009,-0.0102,-0.0196,-0.0198,-0.019,-0.0188,-0.021,-0.021,-0.021,-0.021,-0.0209,0,0.0222,0.0258,0.0311,0.0337,0.0395,0.042,0.0472,0.0484,0.0502,0.053,0.0471,0.0461,0.0317,0.0207,0.0076,-0.0084,-0.0093,-0.0194,-0.0231,-0.0157,-0.015,-0.0197,-0.0194,-0.0215,-0.0214,-0.0213,-0.0212,0,0.0224,0.0259,0.0314,0.0377,0.0404,0.0444,0.0523,0.0561,0.0568,0.0596,0.0592,0.0523,0.0389,0.0227,0.0025,-0.0074,-0.0236,-0.0298,-0.0215,-0.0245,-0.0314,-0.0306,-0.0411,-0.0412,-0.0413,-0.0414,-0.0415,0,0.0227,0.0257,0.0339,0.0383,0.0417,0.0486,0.0543,0.0589,0.0632,0.0637,0.0651,0.054,0.0469,0.0198,0.0017,-0.0244,-0.0277,-0.0372,-0.0331,-0.0309,-0.0334,-0.0324,-0.0315,-0.0416,-0.0416,-0.0416,-0.0417,0,0.0232,0.0261,0.0313,0.041,0.0481,0.0559,0.064,0.0678,0.0728,0.0722,0.0707,0.0576,0.042,0.0216,0.0005,-0.0179,-0.031,-0.0382,-0.0381,-0.0344,-0.0316,-0.0338,-0.0328,-0.042,-0.0419,-0.0419,-0.0419,0,0.0236,0.0275,0.0358,0.0448,0.0537,0.063,0.066,0.0724,0.077,0.0776,0.0761,0.0604,0.051,0.0246,0.0055,-0.0127,-0.0167,-0.0222,-0.023,-0.0229,-0.013,-0.0065,-0.0126,0,0,0,0,0,0.0245,0.0316,0.0396,0.0511,0.0599,0.0659,0.0738,0.0763,0.0796,0.08,0.0791,0.0652,0.0395,0.0284,0.0105,0.0018,-0.0218,-0.0201,-0.029,-0.0437,-0.0433,-0.0347,0,0,0,0,0,0,0.0264,0.0343,0.0406,0.0557,0.0639,0.0748,0.08,0.0813,0.0818,0.0813,0.0685,0.0612,0.0361,0.0509,0.0108,0.005,-0.0032,-0.0325,-0.0329,-0.0439,-0.0436,-0.0433,-0.0342,0,0,0,0,0]}]]